Regional Weather Roundup
Issued by NWS

Home | Current Version | Previous Version | Graphics & Text | Print | Product List | Glossary Off
Versions: 1 2 3 4 5 6 7 8 9 10 11 12 13 14 15 16 17 18 19 20 21 22 23 24 25 26 27 28 29 30 31 32 33 34 35 36 37 38 39 40 41 42 43 44 45 46 47 48 49 50

000
ASUS43 KTOP 012108
RWRKS

WEATHER ROUNDUP FOR KANSAS
NATIONAL WEATHER SERVICE GOODLAND KS
400 PM CDT WED APR 01 2015

NOTE:  "FAIR" INDICATES FEW OR NO CLOUDS BELOW 12,000 FEET WITH NO
SIGNIFICANT WEATHER AND/OR OBSTRUCTIONS TO VISIBILITY.

KSZ001>006-013>018-027>032-041>047-012200-
NORTHWEST KANSAS

CITY           SKY/WX    TMP DP  RH WIND       PRES   REMARKS
GOODLAND       MOSUNNY   82  22  11 VRB3      29.60F
HAYS           MOSUNNY   84  50  30 S22G29    29.58F
HILL CITY      PTSUNNY   87  42  20 S17G26    29.55F
RUSSELL        SUNNY     86  49  27 S25G38    29.56F
$$

KSZ061>065-074>080-084>089-012200-
SOUTHWEST KANSAS

CITY           SKY/WX    TMP DP  RH WIND       PRES   REMARKS
DODGE CITY     SUNNY     85  38  18 S21G29    29.60F
ELKHART          N/A     84  28  13 W15         N/A
GARDEN CITY    PTSUNNY   82  30  15 SW13      29.60F
GREAT BEND     SUNNY     84  52  32 S24G30    29.58F
LIBERAL        PTSUNNY   84  32  15 S22G30    29.63F
PRATT          SUNNY     86  46  25 S24G31    29.64F
$$

KSZ066>073-081>083-090>101-012200-
SOUTHEAST KANSAS

CITY           SKY/WX    TMP DP  RH WIND       PRES   REMARKS
CHANUTE        MOSUNNY   77  59  53 SE20G25   29.77F
COFFEYVILLE    SUNNY     78  62  57 S12       29.75F
HUTCHINSON     SUNNY     87  52  29 S25G32    29.63F
MEDICINE LODGE   N/A     86  50  28 S25G33    29.61F
NEWTON         MOSUNNY   82  55  39 S20G26    29.69F
PARSONS        SUNNY     76  61  59 S9        29.77F
WICHITA INTL   MOSUNNY   86  54  33 S24G37    29.65F
WICHITA JABRA  SUNNY     84  54  35 S21G36    29.67F
WICHITA MCCONL SUNNY     84  57  39 S21G32    29.66F
WINFIELD       SUNNY     83  54  36 S20G35    29.70F
$$

KSZ007>012-019>026-033>040-048>060-102>105-012200-
NORTHEAST KANSAS

CITY           SKY/WX    TMP DP  RH WIND       PRES   REMARKS
CONCORDIA      SUNNY     83  49  30 S23G38    29.60F
EMPORIA        SUNNY     80  53  39 SE23G30   29.71F
LAWRENCE       MOSUNNY   80  53  39 S23G30    29.73F
MANHATTAN      SUNNY     85  50  29 S23G33    29.64F
MARYSVILLE     SUNNY     82  50  32 S21G30    29.63F
OLATHE IND     MOSUNNY   78  53  41 S23G31    29.76F
OLATHE EXE     MOSUNNY   76  53  44 S23G31    29.76F
SALINA         SUNNY     85  52  32 S28G37    29.62F
TOPEKA BILLARD MOSUNNY   81  52  36 S21G26    29.71F
TOPEKA FORBES  SUNNY     83  52  34 S24G31    29.70F
$$


USA.gov is the U.S. government's official web portal to all federal, state and local government web resources and services.